DW3348 Weather Reports


time (UTC)temp
C
wind
direction
speed
KPH
gust
KPH
rain 1hr
cm
rain 24hr
cm
rain mn
cm
humidity
%
barometer
mb
20260507064427 10 0 0.0 0.0 0.00 0.00 0.00 89 1021.9
20260507063527 10 0 0.0 0.0 0.00 0.00 0.00 89 1021.9
20260507062627 10 0 0.0 0.0 0.00 0.00 0.00 89 1021.9
20260507061727 10 0 0.0 0.0 0.00 0.00 0.00 89 1022.0
20260507060827 10 0 0.0 0.0 0.00 0.00 0.00 89 1021.9
20260507055927 10 0 0.0 0.0 0.00 0.00 0.00 89 1022.0
20260507055027 10 0 0.0 0.0 0.00 0.00 0.00 89 1022.1
20260507054127 10 0 0.0 0.0 0.00 0.00 0.00 89 1022.0
20260507052327 10 0 0.0 0.0 0.00 0.00 0.00 89 1022.0
20260507051427 11 0 0.0 0.0 0.00 0.00 0.00 89 1022.0
20260507050527 11 0 0.0 0.0 0.00 0.00 0.00 89 1021.9
20260507045627 11 0 0.0 0.0 0.00 0.00 0.00 89 1022.0
20260507044727 11 0 0.0 0.0 0.00 0.00 0.00 90 1022.0
20260507043827 11 0 0.0 0.0 0.00 0.00 0.00 89 1022.0
20260507042927 11 0 0.0 0.0 0.00 0.00 0.00 89 1022.0
20260507042027 11 0 0.0 0.0 0.00 0.00 0.00 89 1021.9
20260507041127 11 0 0.0 0.0 0.00 0.00 0.00 88 1021.9
20260507040227 11 168 0.0 1.6 0.00 0.00 0.00 88 1021.8
20260507035327 11 0 0.0 0.0 0.00 0.00 0.00 87 1021.8
20260507034427 11 0 0.0 0.0 0.00 0.00 0.00 87 1021.7
20260507033527 11 0 0.0 0.0 0.00 0.00 0.00 86 1021.7
20260507032627 11 166 0.0 1.6 0.00 0.00 0.00 86 1021.7
20260507031728 12 0 0.0 0.0 0.00 0.00 0.00 85 1021.6
20260507030827 12 163 0.0 1.6 0.00 0.00 0.00 85 1021.5
20260507025927 12 0 0.0 0.0 0.00 0.00 0.00 86 1021.5
20260507025027 12 120 0.0 1.6 0.00 0.00 0.00 85 1021.5
20260507024127 12 0 0.0 0.0 0.00 0.00 0.00 85 1021.4
20260507022327 12 0 0.0 0.0 0.00 0.00 0.00 85 1021.4
20260507021427 12 270 0.0 4.8 0.00 0.00 0.00 84 1021.5
20260507015627 12 0 0.0 0.0 0.00 0.00 0.00 84 1021.5
20260507014727 12 0 0.0 0.0 0.00 0.00 0.00 85 1021.6
20260507013827 12 117 0.0 1.6 0.00 0.00 0.00 85 1021.6
20260507012027 12 117 0.0 3.2 0.00 0.00 0.00 84 1021.7
20260507011127 12 134 0.0 8.0 0.00 0.00 0.00 84 1021.6
20260507010227 12 176 0.0 1.6 0.00 0.00 0.00 85 1021.6
20260507005327 12 0 0.0 0.0 0.00 0.00 0.00 85 1021.6
20260507004427 12 128 0.0 3.2 0.00 0.00 0.00 85 1021.6
20260507000827 12 152 0.0 1.6 0.00 0.00 0.00 86 1021.6
20260506235927 12 115 0.0 6.4 0.00 0.00 0.00 85 1021.6
20260506235027 12 91 0.0 4.8 0.00 0.00 0.00 86 1021.7
20260506234127 12 84 0.0 6.4 0.00 0.00 0.00 86 1021.7
20260506233227 12 106 0.0 8.0 0.00 0.00 0.00 86 1021.8
20260506232327 12 100 0.0 1.6 0.00 0.00 0.00 87 1021.8
20260506225627 12 82 0.0 9.7 0.00 0.00 0.00 86 1022.0
20260506223827 13 147 1.6 9.7 0.00 0.00 0.00 86 1022.1
20260506222927 13 125 0.0 8.0 0.00 0.00 0.00 85 1022.1
20260506222027 13 118 1.6 9.7 0.00 0.00 0.00 85 1022.2
20260506221127 13 151 1.6 9.7 0.00 0.00 0.00 85 1022.1
20260506220227 13 141 4.8 12.9 0.00 0.00 0.00 83 1022.0
20260506215327 13 138 1.6 11.3 0.00 0.00 0.00 82 1021.9
20260506214427 13 123 0.0 6.4 0.00 0.00 0.00 82 1021.9
20260506213527 13 89 0.0 4.8 0.00 0.00 0.00 82 1021.9
20260506212627 13 152 0.0 3.2 0.00 0.00 0.00 82 1021.9
20260506211727 13 130 1.6 12.9 0.00 0.00 0.00 81 1021.9
20260506210828 13 147 1.6 8.0 0.00 0.00 0.00 84 1021.8
20260506205027 13 146 0.0 6.4 0.00 0.00 0.00 81 1021.8
20260506204127 13 137 0.0 3.2 0.00 0.00 0.00 82 1021.9
20260506203227 13 136 1.6 8.0 0.00 0.00 0.00 82 1021.8
20260506202327 12 118 1.6 8.0 0.00 0.00 0.00 82 1021.8
20260506201427 12 273 0.0 4.8 0.00 0.00 0.00 84 1021.8
20260506200527 12 140 0.0 3.2 0.00 0.00 0.00 85 1021.8
20260506195627 12 135 0.0 3.2 0.00 0.00 0.00 85 1021.8
20260506194727 12 126 0.0 6.4 0.00 0.00 0.00 85 1021.9
20260506193827 12 98 0.0 3.2 0.00 0.00 0.00 87 1021.7
20260506192927 12 0 0.0 0.0 0.00 0.00 0.00 88 1021.6
20260506190227 11 121 0.0 3.2 0.00 0.00 0.00 89 1021.5
20260506185327 11 106 0.0 3.2 0.00 0.00 0.00 89 1021.5
20260506184427 11 114 0.0 6.4 0.00 0.00 0.00 89 1021.5
20260506183527 11 148 1.6 8.0 0.00 0.00 0.00 90 1021.5
20260506182627 11 137 3.2 9.7 0.00 0.00 0.00 93 1021.3
20260506180827 11 133 1.6 8.0 0.00 0.00 0.00 91 1021.3
20260506175927 11 160 1.6 6.4 0.00 0.00 0.00 91 1021.3
20260506175027 11 123 1.6 9.7 0.00 0.00 0.00 91 1021.3
20260506173227 11 120 1.6 9.7 0.00 0.00 0.00 91 1021.4
20260506172327 11 146 0.0 1.6 0.00 0.00 0.00 91 1021.4
20260506170527 11 145 1.6 6.4 0.00 0.00 0.00 89 1021.2
20260506165627 11 134 0.0 6.4 0.00 0.00 0.00 90 1021.1
20260506164727 11 0 0.0 0.0 0.00 0.00 0.00 90 1021.0
20260506163827 11 0 0.0 0.0 0.00 0.00 0.00 89 1020.9
20260506162927 11 0 0.0 0.0 0.00 0.00 0.00 89 1020.9
20260506162027 11 0 0.0 0.0 0.00 0.00 0.00 89 1021.0
20260506160227 11 120 0.0 3.2 0.00 0.00 0.00 90 1021.0
20260506154427 11 0 0.0 0.0 0.00 0.00 0.00 92 1020.9
20260506153527 11 120 0.0 3.2 0.00 0.00 0.00 92 1020.9
20260506152627 10 0 0.0 0.0 0.00 0.00 0.00 92 1020.9
20260506150827 10 0 0.0 0.0 0.00 0.00 0.00 93 1020.6
20260506145927 10 0 0.0 0.0 0.00 0.00 0.00 93 1020.6
20260506145027 10 0 0.0 0.0 0.00 0.00 0.00 92 1020.5
20260506144127 10 0 0.0 0.0 0.00 0.00 0.00 93 1020.3
20260506143227 10 0 0.0 0.0 0.00 0.00 0.00 93 1020.1
20260506142327 10 0 0.0 0.0 0.00 0.00 0.00 93 1020.1
20260506141427 10 0 0.0 0.0 0.00 0.00 0.00 93 1020.0
20260506140527 10 0 0.0 0.0 0.00 0.00 0.00 93 1020.1
20260506134727 10 0 0.0 0.0 0.00 0.00 0.00 93 1019.9
20260506133827 10 0 0.0 0.0 0.00 0.00 0.00 93 1019.7
20260506132027 10 0 0.0 0.0 0.00 0.00 0.00 93 1019.7
20260506130227 10 0 0.0 0.0 0.00 0.00 0.00 93 1019.4
20260506125327 10 0 0.0 0.0 0.00 0.00 0.00 93 1019.4
20260506124427 10 0 0.0 0.0 0.00 0.00 0.00 93 1019.6
20260506123527 10 0 0.0 0.0 0.00 0.00 0.00 93 1019.4
20260506122627 10 0 0.0 0.0 0.00 0.00 0.00 93 1019.3
20260506121727 10 0 0.0 0.0 0.00 0.00 0.00 93 1019.3
20260506120827 10 0 0.0 0.0 0.00 0.00 0.00 93 1019.4
20260506115927 10 0 0.0 0.0 0.00 0.00 0.00 93 1019.4
20260506115027 10 0 0.0 0.0 0.00 0.00 0.00 93 1019.1
20260506114127 10 0 0.0 0.0 0.00 0.00 0.00 93 1019.0
20260506113227 10 0 0.0 0.0 0.00 0.00 0.00 93 1019.2
20260506112327 10 0 0.0 0.0 0.00 0.00 0.00 93 1019.2
20260506111427 10 0 0.0 0.0 0.00 0.00 0.00 93 1019.2
20260506110527 10 0 0.0 0.0 0.00 0.00 0.00 93 1019.1
20260506105627 10 0 0.0 0.0 0.00 0.00 0.00 93 1019.1
20260506104727 11 0 0.0 0.0 0.00 0.00 0.00 93 1019.1
20260506103827 11 0 0.0 0.0 0.00 0.00 0.00 92 1019.0
20260506102927 11 0 0.0 0.0 0.00 0.00 0.00 92 1018.9
20260506102027 11 0 0.0 0.0 0.00 0.00 0.00 92 1018.8
20260506101127 11 0 0.0 0.0 0.00 0.00 0.00 92 1018.7
20260506100227 11 0 0.0 0.0 0.00 0.00 0.00 92 1018.8
20260506095327 11 0 0.0 0.0 0.00 0.00 0.00 92 1018.7
20260506093527 11 0 0.0 0.0 0.00 0.00 0.00 92 1018.7
20260506092627 11 0 0.0 0.0 0.00 0.00 0.00 91 1018.8
20260506091727 11 0 0.0 0.0 0.00 0.00 0.00 91 1018.6
20260506085027 11 0 0.0 0.0 0.00 0.00 0.00 90 1018.5
20260506083227 11 0 0.0 0.0 0.00 0.00 0.00 90 1018.4
20260506082327 11 132 0.0 3.2 0.00 0.00 0.00 90 1018.4
20260506081427 11 111 0.0 6.4 0.00 0.00 0.00 90 1018.5
20260506080527 11 0 0.0 0.0 0.00 0.00 0.00 90 1018.4
20260506072927 11 0 0.0 0.0 0.00 0.00 0.00 89 1017.9
20260506072027 11 0 0.0 0.0 0.00 0.00 0.00 89 1017.8
20260506071127 11 87 0.0 1.6 0.00 0.00 0.00 89 1017.9
20260506070227 11 0 0.0 0.0 0.00 0.00 0.00 89 1017.9